| time (UTC) | temp F | wind direction | speed MPH | gust MPH | rain 1hr in | rain 24hr in | rain mn in | humidity % | barometer mb |
| 20260902051538 | 69 | 256 | 1.0 | 3.0 | 0.00 | 0.00 | 0.00 | 75 | 1014.9 |
| 20260902050040 | 69 | 268 | 2.0 | 4.0 | 0.00 | 0.00 | 0.00 | 75 | 1014.8 |
| 20260902044537 | 69 | 281 | 2.0 | 5.0 | 0.00 | 0.00 | 0.00 | 76 | 1014.7 |
| 20260902043036 | 68 | 270 | 4.0 | 7.0 | 0.00 | 0.00 | 0.00 | 77 | 1014.5 |
| 20260902041535 | 68 | 254 | 3.0 | 8.0 | 0.00 | 0.00 | 0.00 | 79 | 1014.4 |
| 20260902040035 | 69 | 252 | 5.0 | 9.0 | 0.00 | 0.00 | 0.00 | 79 | 1014.0 |
| 20260902034534 | 68 | 248 | 4.0 | 8.0 | 0.00 | 0.00 | 0.00 | 79 | 1013.8 |
| 20260902033040 | 68 | 257 | 5.0 | 11.0 | 0.00 | 0.00 | 0.00 | 80 | 1013.6 |
| 20260902031634 | 69 | 257 | 6.0 | 14.0 | 0.00 | 0.00 | 0.00 | 78 | 1013.5 |
| 20260902030031 | 68 | 254 | 3.0 | 11.0 | 0.00 | 0.00 | 0.00 | 76 | 1013.3 |
| 20260902024530 | 69 | 259 | 10.0 | 16.0 | 0.00 | 0.00 | 0.00 | 75 | 1013.2 |
| 20260902023030 | 69 | 254 | 8.0 | 12.0 | 0.00 | 0.00 | 0.00 | 76 | 1013.0 |
| 20260902021535 | 69 | 272 | 3.0 | 9.0 | 0.00 | 0.00 | 0.00 | 76 | 1013.1 |
| 20260902020028 | 69 | 276 | 7.0 | 13.0 | 0.00 | 0.00 | 0.00 | 77 | 1013.1 |
| 20260902014536 | 70 | 254 | 8.0 | 16.0 | 0.00 | 0.00 | 0.00 | 78 | 1013.1 |
| 20260902013027 | 70 | 240 | 9.0 | 16.0 | 0.00 | 0.00 | 0.00 | 78 | 1013.2 |
| 20260902011535 | 70 | 256 | 11.0 | 18.0 | 0.00 | 0.00 | 0.00 | 78 | 1013.1 |
| 20260902010041 | 70 | 253 | 9.0 | 19.0 | 0.00 | 0.00 | 0.00 | 77 | 1013.2 |
| 20260902004529 | 70 | 230 | 13.0 | 21.0 | 0.00 | 0.00 | 0.00 | 77 | 1013.3 |
| 20260902003023 | 71 | 235 | 10.0 | 19.0 | 0.00 | 0.00 | 0.00 | 77 | 1013.2 |
| 20260902001524 | 71 | 246 | 12.0 | 19.0 | 0.00 | 0.00 | 0.00 | 77 | 1013.2 |
| 20260902000027 | 71 | 259 | 11.0 | 17.0 | 0.00 | 0.00 | 0.00 | 76 | 1013.2 |
| 20260901234538 | 71 | 252 | 11.0 | 21.0 | 0.00 | 0.00 | 0.00 | 76 | 1013.5 |
| 20260901233013 | 71 | 213 | 11.0 | 18.0 | 0.00 | 0.00 | 0.00 | 76 | 1013.5 |
| 20260901231512 | 71 | 230 | 13.0 | 18.0 | 0.00 | 0.00 | 0.00 | 76 | 1013.5 |
| 20260901230008 | 71 | 257 | 13.0 | 22.0 | 0.00 | 0.00 | 0.00 | 77 | 1013.5 |
| 20260901224507 | 71 | 268 | 11.0 | 20.0 | 0.00 | 0.00 | 0.00 | 76 | 1013.7 |
| 20260901223006 | 71 | 237 | 12.0 | 20.0 | 0.00 | 0.00 | 0.00 | 77 | 1013.7 |
| 20260901221600 | 71 | 236 | 12.0 | 19.0 | 0.00 | 0.00 | 0.00 | 77 | 1013.9 |
| 20260901221506 | 71 | 244 | 11.0 | 19.0 | 0.00 | 0.00 | 0.00 | 76 | 1013.9 |
| 20260901214556 | 71 | 258 | 14.0 | 20.0 | 0.00 | 0.00 | 0.00 | 77 | 1014.2 |
| 20260901213053 | 72 | 242 | 12.0 | 19.0 | 0.00 | 0.00 | 0.00 | 76 | 1014.3 |
| 20260901211555 | 72 | 236 | 11.0 | 18.0 | 0.00 | 0.00 | 0.00 | 74 | 1014.4 |
| 20260901210058 | 72 | 245 | 11.0 | 17.0 | 0.00 | 0.00 | 0.00 | 75 | 1014.4 |
| 20260901204550 | 72 | 254 | 10.0 | 17.0 | 0.00 | 0.00 | 0.00 | 75 | 1014.6 |
| 20260901203052 | 72 | 219 | 6.0 | 14.0 | 0.00 | 0.00 | 0.00 | 75 | 1014.7 |
| 20260901201548 | 72 | 229 | 11.0 | 16.0 | 0.00 | 0.00 | 0.00 | 72 | 1014.9 |
| 20260901200058 | 72 | 273 | 7.0 | 13.0 | 0.00 | 0.00 | 0.00 | 72 | 1015.1 |
| 20260901194601 | 72 | 274 | 6.0 | 11.0 | 0.00 | 0.00 | 0.00 | 73 | 1015.3 |
| 20260901193046 | 72 | 213 | 5.0 | 9.0 | 0.00 | 0.00 | 0.00 | 74 | 1015.4 |
| 20260901191545 | 72 | 209 | 4.0 | 8.0 | 0.00 | 0.00 | 0.00 | 73 | 1015.6 |
| 20260901190101 | 72 | 217 | 5.0 | 10.0 | 0.00 | 0.00 | 0.00 | 74 | 1015.7 |
| 20260901184541 | 72 | 186 | 4.0 | 8.0 | 0.00 | 0.00 | 0.00 | 74 | 1015.7 |
| 20260901183043 | 71 | 194 | 5.0 | 10.0 | 0.00 | 0.00 | 0.00 | 74 | 1015.7 |
| 20260901181549 | 71 | 189 | 5.0 | 8.0 | 0.00 | 0.00 | 0.00 | 74 | 1015.8 |
| 20260901180037 | 70 | 225 | 6.0 | 9.0 | 0.00 | 0.00 | 0.00 | 75 | 1015.8 |
| 20260901174535 | 70 | 183 | 6.0 | 9.0 | 0.00 | 0.00 | 0.00 | 76 | 1015.9 |
| 20260901173040 | 70 | 146 | 6.0 | 8.0 | 0.00 | 0.00 | 0.00 | 77 | 1015.8 |
| 20260901171533 | 70 | 188 | 5.0 | 10.0 | 0.00 | 0.00 | 0.00 | 77 | 1015.6 |
| 20260901170031 | 70 | 202 | 3.0 | 6.0 | 0.00 | 0.00 | 0.00 | 76 | 1015.5 |
| 20260901164527 | 70 | 239 | 3.0 | 7.0 | 0.00 | 0.00 | 0.00 | 77 | 1015.5 |
| 20260901163025 | 69 | 180 | 2.0 | 6.0 | 0.00 | 0.00 | 0.00 | 79 | 1015.5 |
| 20260901161524 | 69 | 218 | 2.0 | 5.0 | 0.00 | 0.00 | 0.00 | 79 | 1015.5 |
| 20260901160024 | 69 | 102 | 2.0 | 6.0 | 0.00 | 0.00 | 0.00 | 78 | 1015.5 |
| 20260901154519 | 69 | 98 | 0.0 | 7.0 | 0.00 | 0.00 | 0.00 | 80 | 1015.4 |
| 20260901153032 | 69 | 186 | 0.0 | 3.0 | 0.00 | 0.00 | 0.00 | 80 | 1015.3 |
| 20260901151516 | 68 | 115 | 2.0 | 3.0 | 0.00 | 0.00 | 0.00 | 80 | 1015.3 |
| 20260901150015 | 68 | 138 | 2.0 | 5.0 | 0.00 | 0.00 | 0.00 | 81 | 1015.1 |
| 20260901144522 | 69 | 99 | 2.0 | 7.0 | 0.00 | 0.00 | 0.00 | 81 | 1014.8 |
| 20260901143008 | 67 | 109 | 3.0 | 7.0 | 0.00 | 0.00 | 0.00 | 83 | 1014.6 |
| 20260901141510 | 67 | 93 | 3.0 | 6.0 | 0.00 | 0.00 | 0.00 | 83 | 1014.6 |
| 20260901140005 | 67 | 118 | 1.0 | 2.0 | 0.00 | 0.00 | 0.00 | 84 | 1014.5 |
| 20260901134503 | 67 | 242 | 0.0 | 2.0 | 0.00 | 0.00 | 0.00 | 85 | 1014.4 |
| 20260901133005 | 67 | 257 | 0.0 | 0.0 | 0.00 | 0.00 | 0.00 | 86 | 1014.3 |
| 20260901131504 | 67 | 153 | 0.0 | 0.0 | 0.00 | 0.00 | 0.00 | 87 | 1014.2 |
| 20260901130101 | 66 | 213 | 0.0 | 0.0 | 0.00 | 0.00 | 0.00 | 87 | 1014.0 |
| 20260901124602 | 66 | 287 | 0.0 | 0.0 | 0.00 | 0.00 | 0.00 | 87 | 1013.9 |
| 20260901123059 | 66 | 286 | 0.0 | 0.0 | 0.00 | 0.00 | 0.00 | 87 | 1014.1 |
| 20260901121611 | 65 | 258 | 0.0 | 0.0 | 0.00 | 0.00 | 0.00 | 87 | 1013.9 |
| 20260901120106 | 65 | 259 | 0.0 | 0.0 | 0.00 | 0.00 | 0.00 | 86 | 1013.7 |
| 20260901114601 | 66 | 260 | 0.0 | 1.0 | 0.00 | 0.00 | 0.00 | 86 | 1013.7 |
| 20260901113055 | 66 | 304 | 1.0 | 2.0 | 0.00 | 0.00 | 0.00 | 85 | 1013.7 |
| 20260901111554 | 66 | 332 | 0.0 | 0.0 | 0.00 | 0.00 | 0.00 | 85 | 1013.7 |
| 20260901110051 | 66 | 297 | 0.0 | 3.0 | 0.00 | 0.00 | 0.00 | 85 | 1013.9 |
| 20260901104550 | 67 | 283 | 1.0 | 3.0 | 0.00 | 0.00 | 0.00 | 84 | 1014.0 |
| 20260901103052 | 67 | 300 | 1.0 | 4.0 | 0.00 | 0.00 | 0.00 | 84 | 1014.0 |
| 20260901101552 | 67 | 244 | 3.0 | 6.0 | 0.00 | 0.00 | 0.00 | 84 | 1014.0 |
| 20260901100047 | 67 | 279 | 4.0 | 6.0 | 0.00 | 0.00 | 0.00 | 84 | 1014.0 |
| 20260901094547 | 67 | 263 | 4.0 | 7.0 | 0.00 | 0.00 | 0.00 | 84 | 1014.0 |
| 20260901093114 | 67 | 263 | 3.0 | 6.0 | 0.00 | 0.00 | 0.00 | 84 | 1013.9 |
| 20260901091559 | 67 | 261 | 3.0 | 7.0 | 0.00 | 0.00 | 0.00 | 85 | 1013.9 |
| 20260901090044 | 67 | 265 | 4.0 | 7.0 | 0.00 | 0.00 | 0.00 | 85 | 1013.8 |
| 20260901084541 | 67 | 260 | 3.0 | 6.0 | 0.00 | 0.00 | 0.00 | 85 | 1013.9 |
| 20260901083045 | 67 | 256 | 3.0 | 5.0 | 0.00 | 0.00 | 0.00 | 85 | 1014.1 |
| 20260901081541 | 67 | 258 | 1.0 | 3.0 | 0.00 | 0.00 | 0.00 | 85 | 1014.2 |
| 20260901080044 | 67 | 270 | 2.0 | 3.0 | 0.00 | 0.00 | 0.00 | 85 | 1014.1 |
| 20260901074536 | 67 | 240 | 0.0 | 3.0 | 0.00 | 0.00 | 0.00 | 85 | 1014.2 |
| 20260901073035 | 67 | 265 | 2.0 | 6.0 | 0.00 | 0.00 | 0.00 | 86 | 1014.2 |
| 20260901071536 | 68 | 266 | 1.0 | 4.0 | 0.00 | 0.00 | 0.00 | 85 | 1014.0 |
| 20260901070035 | 68 | 263 | 2.0 | 4.0 | 0.00 | 0.00 | 0.00 | 85 | 1014.1 |
| 20260901064536 | 68 | 263 | 2.0 | 6.0 | 0.00 | 0.00 | 0.00 | 86 | 1014.0 |
| 20260901063029 | 68 | 249 | 4.0 | 7.0 | 0.00 | 0.00 | 0.00 | 86 | 1013.9 |
| 20260901061528 | 68 | 244 | 3.0 | 5.0 | 0.00 | 0.00 | 0.00 | 86 | 1013.6 |
| 20260901060027 | 68 | 248 | 1.0 | 4.0 | 0.00 | 0.00 | 0.00 | 86 | 1013.6 |
| 20260901054525 | 68 | 235 | 2.0 | 6.0 | 0.00 | 0.00 | 0.00 | 86 | 1013.6 |